FLOCK 2E-4

Last updated on March 12, 2018, 12:16 a.m. UTC

1 41487U 98067JH  18070.31675234  .14212785  12501-4  82846-3 0  9995
2 41487  51.6109  75.1635 0003380  16.6517 345.1183 16.41744848103922

Satellite is not in orbit.